DECAYED

W-SERIES 4 DEB, 69093 (Decayed)

Orbit data source: Space-Track

W-SERIES 4 DEB, 69093 was space debris in LEO originally from a launch on Mon, 23 Jun 2025 UTC via an FALCON 9 launch vehicle from the Air Force Western Test Range (AFWTR). Debris objects in space refer to the collection of defunct objects orbiting the Earth. Examples of debris include non-operational satellites, rocket bodies, and fragments generated from explosions, collisions, or faulty payload assembly.

Not visible in the next 10 days
Identifier
69093, 2025-135BW
Orbit
Decayed
Country
Flag of USUS
Related business
Manufacturer
Varda Space
Mission
Decayed spacecraft
Bus & Motor
VARDA RV, Unknown motor
Mass
~120 kg wet, 120 kg dry
Launch date (UTC)
2025-06-23 (1 year ago)
Launch vehicle
FALCON 9
Launch site
Air Force Western Test Range (AFWTR)
Object type
Payload
Rocket body
Debris
Shape & HBR
Unknown
Radar Cross Section
Large (>1 m²)

Expand to show TLE details & history
Last TLE update: 1 week ago

TLE from 1 week ago
0 W-SERIES 4 DEB
1 69093U 25135BW  26152.37931281  .14512898  18916-5  19652-3 0  9997
2 69093  97.4032 264.4443 0070235 133.5276 227.1889 16.39592023  4309
Epoch: 2026-06-01T09:06Z
TLE epoch observation values (Epoch: 2026-06-01T09:06:12.626Z)
Latitude
-0.00003°
Longitude
-121.97579°
Altitude
201.559 km
Speed
7.767 km/s
True Right ascension
17h 37m 46s
True Declination
0° 00' 00"
Sunlit
Object was in full shadow at epoch
Visualization orbit readout
Latitude
Unknown
Longitude
Unknown
Altitude
Unknown
Speed
Unknown
Apparent Right ascension
Unknown
Apparent Declination
Unknown
Sunlit
N/A
Visualization observer readout
Local Sidereal Time
13:24:30
Azimuth
Unknown
Elevation
Unknown
Doppler factor
Unknown
Orbital elements
Apogee altitude
209.643 km
Perigee altitude
117.749 km
Semi-major axis
6,541.833 km
Eccentricity
0.00702
Inclination
97.4032°
RAAN
264.4443°
Arg. of periapsis
133.5276°
True anomaly
226.60199°
Mean anomaly
227.1889°
Eccentric anomaly
226.89509°
Mean motion
4.10198 °/min
Orbital period
87.76 mins
BSTAR
0.00019652
Loading maneuver chart data...
Computing Atmospheric mass density...
Loading historical data...
Loading historical data...
Loading historical data...
Loading historical data...
Loading historical data...
Loading historical data...
Loading historical data...

Documentation

Showing up to 5 results
|